ZTF彗星

C/2021 E3 ( ZTF )

English version
Home page
Updated on September 18, 2021

---------------------------------------------------------------------

・ プロフィール

発見日 2021年3月9日
発見光度 19.6等
発見者 Zwicky Transient Facility

・ 写真集

・ 軌道要素

Epoch 2022 June 30.0 TT = JDT 2459760.5
T 2022 June 11.91637 TT                                 Rudenko
q   1.7773912            (2000.0)            P               Q
z  -0.0004871      Peri.  228.85074     -0.11526210     -0.43252622
 +/-0.0000097      Node   104.46842     -0.37416954     +0.85282100
e   1.0008658      Incl.  112.55493     -0.92016944     -0.29260454
From 429 observations 2021 Mar. 9-Sept. 1, mean residual 0".6.

・ 星図

・ 光度変化

        m1 = 8.0 + 5 logΔ + 10.0 log r

---------------------------------------------------------------------

軌道要素はM.P.E.C. 2021-R75に掲載されたものです。
星図はステラナビゲータ Ver.10 (アストロアーツ) で作成したものです。
光度グラフはComet for Windowsで作成したものです。

---------------------------------------------------------------------

Copyright(C) Seiichi Yoshida (comet@aerith.net). All rights reserved.